Location: ???? ???? ?????
(31.2680°N, 31.7283°E)
Time: 19:59:42
(UTC+00:00)

Cosmos 1842 Rocket - Pass Details

Date: 13 July 2020
Orbit: 604 x 635 km, 82.5° (Epoch: 06 August)

Event Time Altitude Azimuth Distance (km) Brightness Sun altitude
Rises 19:11:53 0° 352° (N) 2,862 7.8 -23.6°
Reaches altitude 10° 19:14:06 10° 351° (N) 1,954 6.9 -23.9°
Enters shadow 19:18:22 80° 276° (W) 618 3.5 -24.6°
